This is the latest recevied weather packets stored in our database for station/object K5GHS-1. If no packets are shown the sender has not sent any weather packets the latest 10 day(s).
| Time | Temp. | Humidity | Pressure | Rain* | Wind** | Luminosity | Snow |
|---|---|---|---|---|---|---|---|
| 1787965143 | 35° C | 38% | 1012.8 hPa | 0 mm | - | 0 W/m² | - |
| 1787964838 | 35° C | 37% | 1013.2 hPa | 0 mm | - | 1 W/m² | - |
| 1787964533 | 35.56° C | 37% | 1013 hPa | 0 mm | - | 2 W/m² | - |
| 1787964229 | 35.56° C | 36% | 1013 hPa | 0 mm | - | 5 W/m² | - |
| 1787963927 | 35.56° C | 36% | 1013.4 hPa | 0 mm | - | 6 W/m² | - |
| 1787963623 | 35.56° C | 34% | 1013.2 hPa | 0 mm | - | 9 W/m² | - |
| 1787963317 | 35.56° C | 34% | 1013.2 hPa | 0 mm | - | 11 W/m² | - |
| 1787963017 | 36.11° C | 34% | 1012.7 hPa | 0 mm | - | 12 W/m² | - |
| 1787962711 | 36.11° C | 32% | 1012.8 hPa | 0 mm | - | 16 W/m² | - |
| 1787962411 | 36.67° C | 32% | 1012.7 hPa | 0 mm | - | 17 W/m² | - |
| 1787962110 | 36.67° C | 32% | 1012.7 hPa | 0 mm | - | 21 W/m² | - |
| 1787961804 | 36.67° C | 31% | 1012.6 hPa | 0 mm | - | 24 W/m² | - |
| 1787961502 | 36.67° C | 32% | 1012.6 hPa | 0 mm | - | 25 W/m² | - |
| 1787961197 | 37.22° C | 32% | 1012.6 hPa | 0 mm | - | 28 W/m² | - |
| 1787960896 | 37.22° C | 31% | 1012.6 hPa | 0 mm | - | 31 W/m² | - |
| 1787960592 | 37.22° C | 31% | 1012.6 hPa | 0 mm | - | 33 W/m² | - |
| 1787960290 | 37.22° C | 31% | 1012.5 hPa | 0 mm | - | 35 W/m² | - |
| 1787959985 | 37.78° C | 30% | 1012.6 hPa | 0 mm | - | 37 W/m² | - |
| 1787959679 | 37.22° C | 31% | 1012.6 hPa | 0 mm | - | 39 W/m² | - |
| 1787959375 | 37.78° C | 31% | 1012.7 hPa | 0 mm | - | 40 W/m² | - |
| 1787959069 | 38.33° C | 32% | 1012.7 hPa | 0 mm | - | 43 W/m² | - |
| 1787958764 | 38.33° C | 32% | 1012.5 hPa | 0 mm | - | 46 W/m² | - |
| 1787958460 | 39.44° C | 31% | 1012.7 hPa | 0 mm | - | 167 W/m² | - |
| 1787958156 | 39.44° C | 31% | 1012.6 hPa | 0 mm | - | 179 W/m² | - |
| 1787957855 | 38.89° C | 31% | 1012.4 hPa | 0 mm | - | 207 W/m² | - |
* Rain latest hour (hover to see other rain measurements)
** Current wind speed in m/s (hover to see current wind gust speed)